1998-067LV

Last updated on Thu May 25 2017 00:15:03 GMT+0000 (Coordinated Universal Time)

1 42714U 98067LV 17144.25479690 .00011719 00000-0 17950-3 0 9991 2 42714 51.6418 157.5594 0002648 146.6864 304.7763 15.54813436 893
UTC large
Height (km)
Speed (km/s)
/
Latitude / Longitude
Inclination (degrees)
Orbital Period (minutes)
Azimuth
Elevation
Range (km)
Doppler Factor

Next 0 passes for location: London (51.5072 / 0.1276)

Sorry there are no passes over London.